• In Deutschland
  • Länderverzeichnis
  • Für 7 Tage
  • Wassertemperatur
  • Satellitenkarten
  • Wetterkarte
  • Widgets
  • user-avatar
    Anmelden

    Stündliche Wetter Oberstdorf

    Heute, 14 Dezember, Donnerstag

    Zeit Temperatur Niederschläge Wind Luftdruck Luftfeuchtigkeit
    00:00 -3°C° 0,2 mm 4 m/S 665 mmHg 71%
    01:00 -2°C° 0 mm 6 m/S 664 mmHg 67%
    02:00 -1°C° 0,5 mm 5 m/S 664 mmHg 71%
    03:00 -1°C° 0,5 mm 5 m/S 664 mmHg 75%
    04:00 -1°C° 0,5 mm 5 m/S 664 mmHg 80%
    05:00 -1°C° 0,5 mm 5 m/S 664 mmHg 81%
    06:00 -1°C° 0,5 mm 5 m/S 664 mmHg 83%
    07:00 -2°C° 0,5 mm 6 m/S 664 mmHg 85%
    08:00 -1°C° 0,8 mm 5 m/S 665 mmHg 87%
    09:00 -1°C° 0,8 mm 5 m/S 665 mmHg 89%
    10:00 -1°C° 0,8 mm 4 m/S 666 mmHg 90%
    11:00 -1°C° 0,9 mm 4 m/S 665 mmHg 91%
    12:00 -1°C° 0,9 mm 4 m/S 665 mmHg 91%
    13:00 0°C° 0,9 mm 3 m/S 664 mmHg 92%
    14:00 0°C° 0,7 mm 3 m/S 664 mmHg 92%
    15:00 0°C° 0,7 mm 3 m/S 664 mmHg 93%
    16:00 -1°C° 0,7 mm 3 m/S 663 mmHg 93%
    17:00 -1°C° 0,7 mm 3 m/S 663 mmHg 93%
    18:00 -1°C° 0,7 mm 3 m/S 663 mmHg 93%
    19:00 -1°C° 0,7 mm 3 m/S 662 mmHg 93%
    20:00 -1°C° 1,1 mm 3 m/S 662 mmHg 93%
    21:00 -1°C° 1,1 mm 3 m/S 661 mmHg 92%
    22:00 -1°C° 1,1 mm 3 m/S 661 mmHg 92%
    23:00 -1°C° 0,9 mm 3 m/S 660 mmHg 91%

    Morgen, 15 Dezember, Freitag

    Zeit Temperatur Niederschläge Wind Luftdruck Luftfeuchtigkeit
    00:00 -1°C° 0,9 mm 3 m/S 660 mmHg 90%
    01:00 -1°C° 0,9 mm 3 m/S 660 mmHg 88%
    02:00 -2°C° 1,5 mm 4 m/S 660 mmHg 91%
    03:00 -2°C° 1,5 mm 4 m/S 660 mmHg 93%
    04:00 -2°C° 1,5 mm 4 m/S 660 mmHg 95%
    05:00 -2°C° 0,8 mm 4 m/S 661 mmHg 94%
    06:00 -3°C° 0,8 mm 4 m/S 661 mmHg 93%
    07:00 -4°C° 0,8 mm 3 m/S 662 mmHg 92%
    08:00 -4°C° 0 mm 3 m/S 662 mmHg 91%
    09:00 -4°C° 0 mm 3 m/S 662 mmHg 90%
    10:00 -3°C° 0 mm 2 m/S 662 mmHg 89%
    11:00 -2°C° 0 mm 2 m/S 662 mmHg 86%
    12:00 -2°C° 0 mm 2 m/S 662 mmHg 84%
    13:00 -1°C° 0 mm 2 m/S 662 mmHg 81%
    14:00 -2°C° 0 mm 2 m/S 662 mmHg 83%
    15:00 -3°C° 0 mm 2 m/S 661 mmHg 84%
    16:00 -4°C° 0 mm 2 m/S 661 mmHg 86%
    17:00 -6°C° 0 mm 2 m/S 661 mmHg 83%
    18:00 -7°C° 0 mm 2 m/S 662 mmHg 81%
    19:00 -8°C° 0 mm 2 m/S 662 mmHg 79%
    20:00 -8°C° 0 mm 2 m/S 662 mmHg 77%
    21:00 -8°C° 0 mm 2 m/S 662 mmHg 75%
    22:00 -9°C° 0 mm 2 m/S 662 mmHg 72%
    23:00 -8°C° 0,1 mm 2 m/S 663 mmHg 75%

    übermorgen, 16 Dezember, Samstag

    Zeit Temperatur Niederschläge Wind Luftdruck Luftfeuchtigkeit
    00:00 -7°C° 0,1 mm 2 m/S 663 mmHg 77%
    01:00 -6°C° 0,1 mm 2 m/S 664 mmHg 79%
    02:00 -6°C° 0,2 mm 2 m/S 664 mmHg 82%
    03:00 -6°C° 0,2 mm 2 m/S 664 mmHg 85%
    04:00 -7°C° 0,2 mm 3 m/S 664 mmHg 87%
    05:00 -6°C° 0,5 mm 2 m/S 665 mmHg 89%
    06:00 -6°C° 0,5 mm 2 m/S 666 mmHg 92%
    07:00 -5°C° 0,5 mm 2 m/S 666 mmHg 94%
    08:00 -5°C° 0,3 mm 2 m/S 667 mmHg 94%
    09:00 -4°C° 0,3 mm 2 m/S 667 mmHg 94%
    10:00 -4°C° 0,3 mm 2 m/S 668 mmHg 94%
    11:00 -4°C° 0,2 mm 2 m/S 668 mmHg 93%
    12:00 -3°C° 0,2 mm 2 m/S 668 mmHg 93%
    13:00 -3°C° 0,2 mm 2 m/S 668 mmHg 92%
    14:00 -3°C° 0,3 mm 2 m/S 669 mmHg 93%
    15:00 -3°C° 0,3 mm 2 m/S 669 mmHg 94%
    16:00 -4°C° 0,3 mm 2 m/S 669 mmHg 95%
    17:00 -4°C° 0,5 mm 2 m/S 670 mmHg 95%
    18:00 -4°C° 0,5 mm 2 m/S 671 mmHg 96%
    19:00 -5°C° 0,5 mm 2 m/S 671 mmHg 96%
    20:00 -5°C° 0,5 mm 2 m/S 672 mmHg 96%
    21:00 -3°C° 0,5 mm 1 m/S 672 mmHg 96%
    22:00 -3°C° 0,5 mm 1 m/S 672 mmHg 97%
    23:00 -3°C° 0,4 mm 1 m/S 673 mmHg 97%

    17 Dezember, Sonntag

    Zeit Temperatur Niederschläge Wind Luftdruck Luftfeuchtigkeit
    00:00 -3°C° 0,4 mm 1 m/S 673 mmHg 97%
    01:00 -5°C° 0,4 mm 2 m/S 674 mmHg 97%
    02:00 -5°C° 0,4 mm 2 m/S 674 mmHg 97%
    03:00 -6°C° 0,4 mm 2 m/S 674 mmHg 97%
    04:00 -6°C° 0,4 mm 2 m/S 674 mmHg 97%
    05:00 -6°C° 0,4 mm 2 m/S 675 mmHg 97%
    06:00 -6°C° 0,4 mm 2 m/S 675 mmHg 97%
    07:00 -6°C° 0,4 mm 2 m/S 676 mmHg 96%
    08:00 -6°C° 0,3 mm 2 m/S 677 mmHg 96%
    09:00 -7°C° 0,3 mm 3 m/S 677 mmHg 95%
    10:00 -7°C° 0,3 mm 3 m/S 678 mmHg 94%
    11:00 -7°C° 0,2 mm 3 m/S 678 mmHg 93%
    12:00 -6°C° 0,2 mm 3 m/S 678 mmHg 92%
    13:00 -6°C° 0,2 mm 3 m/S 678 mmHg 91%
    14:00 -5°C° 0,1 mm 2 m/S 678 mmHg 92%
    15:00 -6°C° 0,1 mm 2 m/S 679 mmHg 93%
    16:00 -6°C° 0,1 mm 2 m/S 679 mmHg 94%
    17:00 -6°C° 0,1 mm 2 m/S 679 mmHg 94%
    18:00 -7°C° 0,1 mm 2 m/S 680 mmHg 94%
    19:00 -8°C° 0,1 mm 2 m/S 680 mmHg 94%
    20:00 -8°C° 0,1 mm 2 m/S 681 mmHg 93%
    21:00 -8°C° 0,1 mm 2 m/S 681 mmHg 92%
    22:00 -9°C° 0,1 mm 2 m/S 681 mmHg 91%
    23:00 -9°C° 0 mm 2 m/S 681 mmHg 90%

    18 Dezember, Montag

    Zeit Temperatur Niederschläge Wind Luftdruck Luftfeuchtigkeit
    00:00 -10°C° 0 mm 2 m/S 681 mmHg 88%
    01:00 -12°C° 0 mm 3 m/S 681 mmHg 87%
    02:00 -12°C° 0 mm 3 m/S 681 mmHg 86%
    03:00 -10°C° 0 mm 3 m/S 680 mmHg 84%
    04:00 -9°C° 0 mm 3 m/S 680 mmHg 83%
    05:00 -9°C° 0,2 mm 4 m/S 680 mmHg 84%
    06:00 -8°C° 0,2 mm 4 m/S 680 mmHg 86%
    07:00 -7°C° 0,2 mm 4 m/S 679 mmHg 87%
    08:00 -7°C° 0,9 mm 4 m/S 679 mmHg 89%
    09:00 -6°C° 0,9 mm 5 m/S 678 mmHg 91%
    10:00 -5°C° 0,9 mm 5 m/S 678 mmHg 93%
    11:00 -4°C° 2,2 mm 5 m/S 677 mmHg 93%
    12:00 -4°C° 2,2 mm 5 m/S 677 mmHg 94%
    13:00 -2°C° 2,2 mm 5 m/S 676 mmHg 95%
    14:00 -2°C° 2,3 mm 5 m/S 676 mmHg 95%
    15:00 -2°C° 2,3 mm 5 m/S 676 mmHg 96%
    16:00 -2°C° 2,3 mm 4 m/S 676 mmHg 96%
    17:00 -2°C° 1,3 mm 4 m/S 676 mmHg 97%
    18:00 -2°C° 1,3 mm 4 m/S 677 mmHg 97%
    19:00 -2°C° 1,3 mm 4 m/S 677 mmHg 97%
    20:00 -2°C° 0,7 mm 4 m/S 677 mmHg 97%
    21:00 -1°C° 0,7 mm 3 m/S 678 mmHg 97%
    22:00 -1°C° 0,7 mm 3 m/S 678 mmHg 97%
    23:00 -2°C° 0,4 mm 3 m/S 678 mmHg 97%

    19 Dezember, Dienstag

    Zeit Temperatur Niederschläge Wind Luftdruck Luftfeuchtigkeit
    00:00 -2°C° 0,4 mm 3 m/S 679 mmHg 97%
    01:00 -2°C° 0,4 mm 2 m/S 679 mmHg 97%
    02:00 -2°C° 0,3 mm 2 m/S 679 mmHg 97%
    03:00 -2°C° 0,3 mm 2 m/S 679 mmHg 97%
    04:00 -2°C° 0,3 mm 2 m/S 680 mmHg 97%
    05:00 -2°C° 0,3 mm 2 m/S 680 mmHg 97%
    06:00 -2°C° 0,3 mm 2 m/S 680 mmHg 97%
    07:00 0°C° 0,3 mm 1 m/S 680 mmHg 97%
    08:00 0°C° 0,4 mm 1 m/S 680 mmHg 97%
    09:00 0°C° 0,4 mm 1 m/S 681 mmHg 97%
    10:00 0°C° 0,4 mm 1 m/S 681 mmHg 97%
    11:00 -2°C° 0,2 mm 2 m/S 681 mmHg 97%
    12:00 -2°C° 0,2 mm 2 m/S 681 mmHg 97%
    13:00 -1°C° 0,2 mm 2 m/S 681 mmHg 97%
    14:00 0°C° 0,1 mm 1 m/S 681 mmHg 97%
    15:00 0°C° 0,1 mm 1 m/S 682 mmHg 97%
    16:00 -1°C° 0,1 mm 1 m/S 682 mmHg 96%
    17:00 -2°C° 0 mm 1 m/S 682 mmHg 96%
    18:00 -3°C° 0 mm 1 m/S 682 mmHg 96%
    19:00 -6°C° 0 mm 1 m/S 682 mmHg 96%
    20:00 -6°C° 0 mm 1 m/S 682 mmHg 94%
    21:00 -7°C° 0 mm 1 m/S 683 mmHg 91%
    22:00 -7°C° 0 mm 1 m/S 683 mmHg 89%
    23:00 -7°C° 0 mm 1 m/S 683 mmHg 87%
    Mehr zeigen